AFR42Y LFPG-GOBD

Flight info

Callsign AFR42Y
Flight time 2h 55m
Altitude 37000
Route AGOPA6H/08L AGOPA DCT ARKIP DCT ARMAL DCT ARTAX DCT BEBIX DCT LMG DCT UVELI DCT OSMOB DCT VAVIX DCT NETUK N857 GARVU N10 BANEV N857 BAN N10 CJN/N0469F390 L27 NASOS N869 MGA M985 PIMOS N869 GALTO UN869 ADM UR975 DIDAN/N0479F380 UR975 MOROX/N0481F400 UR975 SAKLI SAKLI1A
Aircraft B772/H-SDE2E3FGHIJ5LORVWXY/LB1D1

Departure

Time 2026-04-25 19:28
Airport Charles de Gaulle International Airport (LFPG)

Arrival

Time 2026-04-25 22:24
Airport Blaise Diagne International Airport (GOBD)
Time Latitude Longitude Altitude Speed Heading
2026-04-25 18:48 49.00625 2.59164 358 ft 0 kts 265°
2026-04-25 19:13 49.00626 2.59177 366 ft 3 kts 267°
2026-04-25 19:13 49.00626 2.59208 361 ft 3 kts 275°
2026-04-25 19:13 49.00624 2.59237 366 ft 3 kts 285°
2026-04-25 19:13 49.00617 2.59265 366 ft 3 kts 299°
2026-04-25 19:14 49.00607 2.59288 367 ft 3 kts 319°
2026-04-25 19:14 49.00603 2.59294 367 ft 3 kts 327°
2026-04-25 19:14 49.00583 2.59307 359 ft 0 kts 355°
2026-04-25 19:17 49.00585 2.59306 359 ft 2 kts 355°
2026-04-25 19:17 49.00616 2.59302 366 ft 0 kts 355°
2026-04-25 19:17 49.00622 2.59302 365 ft 4 kts 355°
2026-04-25 19:17 49.00686 2.59294 358 ft 14 kts 355°
2026-04-25 19:18 49.00786 2.59281 362 ft 0 kts 355°
2026-04-25 19:18 49.00791 2.59280 362 ft 4 kts 355°
2026-04-25 19:18 49.00807 2.59278 359 ft 0 kts 355°
2026-04-25 19:19 49.00813 2.59277 360 ft 6 kts 355°
2026-04-25 19:19 49.00872 2.59303 368 ft 9 kts 49°
2026-04-25 19:19 49.00883 2.59362 366 ft 1 kts 88°
2026-04-25 19:19 49.00882 2.59366 365 ft 1 kts 98°
2026-04-25 19:20 49.00813 2.59409 364 ft 15 kts 173°
2026-04-25 19:20 49.00678 2.59426 358 ft 24 kts 176°
2026-04-25 19:20 49.00510 2.59448 364 ft 24 kts 174°
2026-04-25 19:20 49.00329 2.59471 364 ft 26 kts 176°
2026-04-25 19:21 49.00151 2.59492 363 ft 20 kts 174°
2026-04-25 19:21 49.00068 2.59344 361 ft 16 kts 264°
2026-04-25 19:21 49.00055 2.59131 361 ft 24 kts 266°
2026-04-25 19:22 49.00041 2.58844 358 ft 30 kts 265°
2026-04-25 19:22 49.00022 2.58502 358 ft 30 kts 265°
2026-04-25 19:22 48.99983 2.57757 362 ft 39 kts 266°
2026-04-25 19:23 48.99961 2.57323 363 ft 43 kts 265°
2026-04-25 19:23 48.99932 2.56792 359 ft 17 kts 265°
2026-04-25 19:23 48.99919 2.56567 364 ft 25 kts 265°
2026-04-25 19:24 48.99904 2.56269 363 ft 31 kts 265°
2026-04-25 19:24 48.99893 2.56074 359 ft 12 kts 257°
2026-04-25 19:24 48.99741 2.56029 363 ft 0 kts 176°
2026-04-25 19:26 48.99732 2.56031 362 ft 0 kts 176°
2026-04-25 19:26 48.99722 2.56032 360 ft 5 kts 176°
2026-04-25 19:27 48.99650 2.56041 361 ft 15 kts 175°
2026-04-25 19:27 48.99611 2.56081 364 ft 9 kts 116°
2026-04-25 19:27 48.99619 2.56186 365 ft 14 kts 78°
2026-04-25 19:27 48.99651 2.56438 362 ft 32 kts 84°
2026-04-25 19:28 48.99661 2.56952 362 ft 78 kts 85°
2026-04-25 19:28 48.99723 2.58139 365 ft 144 kts 85°
2026-04-25 19:28 48.99816 2.59918 569 ft 182 kts 84°
2026-04-25 19:28 48.99892 2.61926 1197 ft 198 kts 85°
2026-04-25 19:29 48.99905 2.62277 1321 ft 199 kts 85°
2026-04-25 19:29 48.99940 2.63298 1747 ft 197 kts 85°
2026-04-25 19:29 49.00038 2.65423 2301 ft 210 kts 83°
2026-04-25 19:30 49.00175 2.67777 2582 ft 229 kts 82°
2026-04-25 19:30 49.00349 2.70159 3373 ft 224 kts 81°
2026-04-25 19:30 49.00500 2.72585 3846 ft 235 kts 83°
2026-04-25 19:30 49.00627 2.75100 4386 ft 241 kts 84°
2026-04-25 19:31 49.00746 2.77682 4931 ft 249 kts 87°
2026-04-25 19:31 49.00591 2.80393 5222 ft 264 kts 98°
2026-04-25 19:31 49.00248 2.83179 5799 ft 270 kts 99°
2026-04-25 19:31 48.99906 2.86022 6417 ft 275 kts 98°
2026-04-25 19:32 48.99583 2.88910 7051 ft 278 kts 98°
2026-04-25 19:32 48.99100 2.91751 7481 ft 281 kts 116°
2026-04-25 19:32 48.97777 2.93924 7939 ft 289 kts 151°
2026-04-25 19:32 48.96519 2.94603 8400 ft 288 kts 173°
2026-04-25 19:33 48.94187 2.94085 9017 ft 291 kts 206°
2026-04-25 19:33 48.92495 2.92414 9547 ft 292 kts 222°
2026-04-25 19:33 48.90983 2.90290 10150 ft 293 kts 225°
2026-04-25 19:33 48.89508 2.88098 10492 ft 304 kts 226°
2026-04-25 19:34 48.87958 2.85759 10614 ft 322 kts 226°
2026-04-25 19:34 48.86350 2.83328 10770 ft 342 kts 226°
2026-04-25 19:34 48.84615 2.80720 11069 ft 358 kts 226°
2026-04-25 19:34 48.82817 2.78031 11694 ft 366 kts 226°
2026-04-25 19:35 48.80985 2.75309 12556 ft 369 kts 226°
2026-04-25 19:35 48.79190 2.72646 13481 ft 370 kts 226°
2026-04-25 19:35 48.77346 2.69919 14334 ft 372 kts 226°
2026-04-25 19:35 48.75482 2.67169 15047 ft 377 kts 226°
2026-04-25 19:36 48.73592 2.64386 15776 ft 380 kts 225°
2026-04-25 19:36 48.71686 2.61585 16501 ft 383 kts 225°
2026-04-25 19:36 48.69759 2.58756 17214 ft 387 kts 225°
2026-04-25 19:36 48.67822 2.55917 17912 ft 390 kts 225°
2026-04-25 19:37 48.65864 2.53049 18564 ft 394 kts 225°
2026-04-25 19:37 48.63898 2.50173 19079 ft 396 kts 225°
2026-04-25 19:37 48.61910 2.47268 19160 ft 397 kts 225°
2026-04-25 19:37 48.59928 2.44376 19165 ft 398 kts 225°
2026-04-25 19:38 48.57939 2.41476 19163 ft 398 kts 225°
2026-04-25 19:38 48.55939 2.38563 19181 ft 398 kts 225°
2026-04-25 19:38 48.53951 2.35670 19173 ft 398 kts 225°
2026-04-25 19:38 48.51959 2.32777 19176 ft 398 kts 225°
2026-04-25 19:39 48.49961 2.29877 19173 ft 398 kts 225°
2026-04-25 19:39 48.47968 2.26986 19173 ft 398 kts 225°
2026-04-25 19:39 48.45970 2.24094 19161 ft 398 kts 225°
2026-04-25 19:39 48.43973 2.21204 19162 ft 398 kts 225°
2026-04-25 19:40 48.41977 2.18320 19161 ft 398 kts 225°
2026-04-25 19:40 48.39973 2.15427 19232 ft 401 kts 225°
2026-04-25 19:40 48.37955 2.12516 19802 ft 403 kts 225°
2026-04-25 19:40 48.35928 2.09596 20450 ft 403 kts 225°
2026-04-25 19:41 48.33900 2.06680 21059 ft 405 kts 225°
2026-04-25 19:41 48.31841 2.03772 21531 ft 404 kts 221°
2026-04-25 19:41 48.29452 2.01481 21753 ft 416 kts 204°
2026-04-25 19:41 48.27607 2.00632 22031 ft 422 kts 192°
2026-04-25 19:42 48.23683 2.00375 22714 ft 424 kts 179°
2026-04-25 19:42 48.20716 2.00569 23085 ft 430 kts 180°
2026-04-25 19:42 48.17710 2.00705 23578 ft 433 kts 180°
2026-04-25 19:42 48.14693 2.00810 24080 ft 434 kts 181°
2026-04-25 19:43 48.11666 2.00902 24553 ft 436 kts 181°
2026-04-25 19:43 48.08622 2.00991 24992 ft 438 kts 181°
2026-04-25 19:43 48.05567 2.01113 25419 ft 441 kts 180°
2026-04-25 19:43 48.02484 2.01288 25855 ft 444 kts 179°
2026-04-25 19:44 47.99389 2.01482 26189 ft 447 kts 179°
2026-04-25 19:44 47.96266 2.01680 26152 ft 449 kts 179°
2026-04-25 19:44 47.93156 2.01873 26161 ft 446 kts 179°
2026-04-25 19:44 47.90054 2.02057 26161 ft 446 kts 180°
2026-04-25 19:45 47.86945 2.02239 26154 ft 446 kts 180°
2026-04-25 19:45 47.83846 2.02419 26152 ft 446 kts 180°
2026-04-25 19:45 47.80738 2.02598 26155 ft 447 kts 180°
2026-04-25 19:45 47.77634 2.02776 26147 ft 447 kts 180°
2026-04-25 19:46 47.74527 2.02955 26147 ft 447 kts 179°
2026-04-25 19:46 47.71419 2.03134 26141 ft 447 kts 179°
2026-04-25 19:46 47.68313 2.03312 26148 ft 447 kts 179°
2026-04-25 19:46 47.65206 2.03491 26140 ft 446 kts 179°
2026-04-25 19:47 47.62105 2.03670 26142 ft 446 kts 179°
2026-04-25 19:47 47.59011 2.03849 26133 ft 446 kts 179°
2026-04-25 19:47 47.55910 2.04030 26123 ft 446 kts 179°
2026-04-25 19:47 47.52810 2.04211 26136 ft 445 kts 179°
2026-04-25 19:48 47.49714 2.04392 26134 ft 445 kts 179°
2026-04-25 19:48 47.46617 2.04573 26137 ft 445 kts 179°
2026-04-25 19:48 47.43521 2.04753 26133 ft 446 kts 179°
2026-04-25 19:48 47.40407 2.04934 26315 ft 451 kts 179°
2026-04-25 19:49 47.38303 2.05055 26570 ft 453 kts 179°
2026-04-25 19:49 47.37868 2.05081 26634 ft 453 kts 179°
2026-04-25 19:49 47.32637 2.04983 27396 ft 453 kts 187°
2026-04-25 19:49 47.29525 2.04257 27828 ft 453 kts 192°
2026-04-25 19:50 47.23303 2.02555 28615 ft 458 kts 191°
2026-04-25 19:50 47.20143 2.01744 29000 ft 461 kts 191°
2026-04-25 19:50 47.16978 2.00944 29391 ft 463 kts 191°
2026-04-25 19:51 47.13797 2.00145 29832 ft 464 kts 191°
2026-04-25 19:51 47.10618 1.99349 30243 ft 465 kts 191°
2026-04-25 19:51 47.07423 1.98546 30564 ft 466 kts 191°
2026-04-25 19:51 47.04220 1.97741 30862 ft 468 kts 191°
2026-04-25 19:52 47.01009 1.96934 31151 ft 469 kts 191°
2026-04-25 19:52 46.97787 1.96125 31428 ft 470 kts 191°
2026-04-25 19:52 46.94559 1.95315 31697 ft 471 kts 192°
2026-04-25 19:52 46.91336 1.94508 32036 ft 470 kts 192°
2026-04-25 19:53 46.88110 1.93702 32439 ft 468 kts 192°
2026-04-25 19:53 46.84919 1.92905 32875 ft 465 kts 192°
2026-04-25 19:53 46.81729 1.92110 33300 ft 463 kts 192°
2026-04-25 19:53 46.78563 1.91321 33697 ft 461 kts 192°
2026-04-25 19:54 46.75406 1.90535 34093 ft 459 kts 192°
2026-04-25 19:54 46.72264 1.89753 34405 ft 458 kts 192°
2026-04-25 19:54 46.69120 1.88972 34633 ft 459 kts 192°
2026-04-25 19:55 46.62816 1.87407 35099 ft 460 kts 192°
2026-04-25 19:55 46.59656 1.86625 35336 ft 461 kts 192°
2026-04-25 19:55 46.56487 1.85841 35583 ft 461 kts 192°
2026-04-25 19:55 46.53324 1.85060 35809 ft 462 kts 192°
2026-04-25 19:56 46.50195 1.84288 36044 ft 462 kts 192°
2026-04-25 19:56 46.46982 1.83497 36284 ft 463 kts 192°
2026-04-25 19:56 46.43806 1.82715 36487 ft 463 kts 192°
2026-04-25 19:56 46.40627 1.81933 36728 ft 464 kts 192°
2026-04-25 19:57 46.37450 1.81153 36940 ft 464 kts 192°
2026-04-25 19:57 46.35538 1.80684 37050 ft 465 kts 192°
2026-04-25 19:57 46.33865 1.80274 37081 ft 466 kts 192°
2026-04-25 19:58 46.27534 1.78243 37154 ft 465 kts 204°
2026-04-25 19:58 46.21960 1.73712 37147 ft 457 kts 220°
2026-04-25 19:59 46.17234 1.67688 37154 ft 453 kts 223°
2026-04-25 19:59 46.12482 1.61722 37168 ft 452 kts 222°
2026-04-25 20:00 46.09158 1.57602 37171 ft 452 kts 222°
2026-04-25 20:00 46.06069 1.53782 37168 ft 452 kts 222°
2026-04-25 20:01 45.99129 1.45209 37171 ft 453 kts 223°
2026-04-25 20:01 45.94847 1.38626 37170 ft 451 kts 235°
2026-04-25 20:02 45.91589 1.30906 37141 ft 447 kts 243°
2026-04-25 20:02 45.87833 1.23829 37160 ft 451 kts 223°
2026-04-25 20:03 45.82763 1.18537 37164 ft 456 kts 215°
2026-04-25 20:03 45.77441 1.13515 37162 ft 459 kts 216°
2026-04-25 20:04 45.72127 1.08428 37164 ft 460 kts 216°
2026-04-25 20:04 45.66803 1.03326 37165 ft 461 kts 216°
2026-04-25 20:05 45.61460 0.98221 37169 ft 462 kts 216°
2026-04-25 20:05 45.56127 0.93139 37172 ft 462 kts 216°
2026-04-25 20:06 45.50778 0.88056 37168 ft 462 kts 216°
2026-04-25 20:06 45.45419 0.82976 37164 ft 462 kts 216°
2026-04-25 20:07 45.40075 0.77921 37164 ft 461 kts 216°
2026-04-25 20:07 45.34724 0.72871 37163 ft 461 kts 216°
2026-04-25 20:08 45.29376 0.67835 37161 ft 461 kts 216°
2026-04-25 20:08 45.24030 0.62813 37182 ft 461 kts 216°
2026-04-25 20:09 45.15323 0.54657 37182 ft 461 kts 216°
2026-04-25 20:09 45.06413 0.46343 37185 ft 462 kts 216°
2026-04-25 20:10 44.93923 0.34742 37178 ft 462 kts 215°
2026-04-25 20:10 44.84900 0.26400 37182 ft 462 kts 215°
2026-04-25 20:11 44.72620 0.15095 37179 ft 462 kts 215°
2026-04-25 20:11 44.61855 0.05234 37184 ft 462 kts 215°
2026-04-25 20:12 44.52828 -0.03002 37183 ft 462 kts 215°
2026-04-25 20:12 44.43884 -0.11130 37186 ft 461 kts 215°
2026-04-25 20:13 44.31349 -0.22473 37191 ft 461 kts 215°
2026-04-25 20:13 44.20579 -0.32172 37198 ft 461 kts 215°
2026-04-25 20:14 44.09772 -0.41860 37201 ft 461 kts 215°
2026-04-25 20:14 43.98983 -0.51491 37212 ft 461 kts 214°
2026-04-25 20:15 43.88199 -0.61075 37202 ft 460 kts 214°
2026-04-25 20:15 43.77404 -0.70627 37202 ft 460 kts 214°
2026-04-25 20:16 43.66606 -0.80139 37216 ft 460 kts 214°
2026-04-25 20:16 43.55793 -0.89625 37215 ft 460 kts 214°
2026-04-25 20:17 43.48624 -0.95891 37208 ft 461 kts 214°
2026-04-25 20:17 43.38793 -1.04455 37200 ft 461 kts 214°
2026-04-25 20:18 43.27952 -1.13861 37204 ft 461 kts 214°
2026-04-25 20:18 43.17066 -1.23265 37197 ft 462 kts 214°
2026-04-25 20:19 43.06529 -1.32329 37160 ft 463 kts 214°
2026-04-25 20:19 42.95677 -1.41626 37182 ft 463 kts 214°
2026-04-25 20:20 42.84669 -1.51016 37185 ft 464 kts 213°
2026-04-25 20:20 42.73197 -1.58746 37148 ft 469 kts 199°
2026-04-25 20:21 42.60794 -1.64378 37180 ft 469 kts 200°
2026-04-25 20:21 42.48419 -1.70106 37152 ft 470 kts 200°
2026-04-25 20:22 42.38047 -1.74885 37150 ft 470 kts 200°
2026-04-25 20:22 42.23660 -1.81483 37151 ft 470 kts 200°
2026-04-25 20:23 42.11291 -1.87130 37151 ft 469 kts 200°
2026-04-25 20:23 41.98926 -1.92751 37155 ft 469 kts 200°
2026-04-25 20:24 41.86576 -1.98343 37161 ft 468 kts 199°
2026-04-25 20:24 41.74249 -2.03903 37157 ft 468 kts 199°
2026-04-25 20:25 41.61904 -2.09447 37155 ft 467 kts 199°
2026-04-25 20:25 41.49570 -2.14965 37151 ft 467 kts 199°
2026-04-25 20:26 41.37352 -2.20408 37146 ft 467 kts 199°
2026-04-25 20:26 41.24997 -2.25891 37152 ft 468 kts 199°
2026-04-25 20:27 41.12636 -2.31354 37155 ft 468 kts 199°
2026-04-25 20:27 41.00283 -2.36793 37154 ft 468 kts 199°
2026-04-25 20:28 40.87903 -2.42222 37150 ft 469 kts 198°
2026-04-25 20:28 40.75531 -2.47626 37145 ft 469 kts 198°
2026-04-25 20:29 40.63118 -2.53026 37140 ft 469 kts 198°
2026-04-25 20:29 40.50709 -2.58403 37137 ft 470 kts 198°
2026-04-25 20:30 40.38367 -2.63731 37131 ft 470 kts 198°
2026-04-25 20:30 40.25854 -2.69111 37135 ft 471 kts 198°
2026-04-25 20:31 40.13380 -2.74455 37132 ft 472 kts 198°
2026-04-25 20:31 40.00985 -2.79744 37138 ft 472 kts 198°
2026-04-25 20:32 39.88483 -2.85058 37138 ft 473 kts 197°
2026-04-25 20:32 39.75958 -2.90361 37134 ft 473 kts 197°
2026-04-25 20:33 39.63422 -2.95649 37127 ft 473 kts 197°
2026-04-25 20:33 39.52934 -3.00057 37122 ft 474 kts 197°
2026-04-25 20:34 39.38339 -3.06169 37116 ft 474 kts 197°
2026-04-25 20:34 39.25775 -3.11409 37115 ft 475 kts 197°
2026-04-25 20:35 39.13209 -3.16630 37113 ft 475 kts 197°
2026-04-25 20:35 39.00595 -3.21853 37109 ft 476 kts 197°
2026-04-25 20:36 38.88144 -3.27734 37110 ft 477 kts 201°
2026-04-25 20:36 38.75735 -3.33780 37103 ft 478 kts 200°
2026-04-25 20:37 38.63256 -3.39747 37096 ft 479 kts 200°
2026-04-25 20:37 38.50747 -3.45712 37100 ft 480 kts 200°
2026-04-25 20:38 38.38203 -3.51672 37094 ft 481 kts 200°
2026-04-25 20:38 38.25595 -3.57641 37081 ft 482 kts 200°
2026-04-25 20:39 38.10040 -3.65425 37051 ft 483 kts 204°
2026-04-25 20:39 37.89572 -3.77040 37071 ft 484 kts 204°
2026-04-25 20:40 37.60927 -3.93101 37063 ft 486 kts 204°
2026-04-25 20:40 37.36163 -4.06879 37085 ft 487 kts 204°
2026-04-25 20:41 37.11331 -4.20595 37085 ft 487 kts 204°
2026-04-25 20:41 36.86448 -4.34242 37080 ft 488 kts 204°
2026-04-25 20:42 36.63238 -4.51412 37083 ft 485 kts 214°
2026-04-25 20:42 36.40422 -4.69397 37094 ft 485 kts 214°
2026-04-25 20:43 36.18951 -4.86216 37101 ft 486 kts 214°
2026-04-25 20:43 35.97456 -5.03217 37092 ft 486 kts 215°
2026-04-25 20:44 35.75112 -5.21906 37068 ft 484 kts 220°
2026-04-25 20:44 35.53614 -5.41687 37055 ft 483 kts 220°
2026-04-25 20:45 35.32066 -5.61338 36984 ft 482 kts 220°
2026-04-25 20:45 35.10545 -5.80833 36951 ft 481 kts 220°
2026-04-25 20:46 34.92138 -5.97405 37436 ft 480 kts 220°
2026-04-25 20:46 34.89248 -5.99997 37754 ft 478 kts 220°
2026-04-25 20:46 34.86571 -6.02395 38111 ft 475 kts 220°
2026-04-25 20:47 34.83919 -6.04770 38443 ft 473 kts 220°
2026-04-25 20:47 34.81271 -6.07141 38691 ft 472 kts 220°
2026-04-25 20:47 34.78630 -6.09503 38820 ft 473 kts 220°
2026-04-25 20:47 34.72714 -6.14790 38910 ft 478 kts 220°
2026-04-25 20:48 34.51132 -6.33981 38904 ft 475 kts 219°
2026-04-25 20:48 34.40676 -6.43231 38876 ft 458 kts 219°
2026-04-25 20:48 34.30397 -6.52306 38945 ft 457 kts 219°
2026-04-25 20:49 34.09465 -6.70692 39007 ft 473 kts 219°
2026-04-25 20:49 33.88071 -6.88518 38910 ft 461 kts 217°
2026-04-25 20:50 33.67050 -7.05717 38977 ft 453 kts 217°
2026-04-25 20:50 33.46430 -7.22489 39007 ft 467 kts 217°
2026-04-25 20:51 33.25086 -7.39744 38960 ft 459 kts 216°
2026-04-25 20:51 33.03835 -7.56088 38949 ft 449 kts 212°
2026-04-25 20:52 32.89438 -7.66171 38989 ft 460 kts 212°
2026-04-25 20:52 32.59849 -7.86847 38906 ft 455 kts 212°
2026-04-25 20:53 32.38263 -8.01842 38967 ft 451 kts 212°
2026-04-25 20:53 32.16136 -8.17127 38991 ft 467 kts 212°
2026-04-25 20:54 31.93819 -8.32167 38904 ft 454 kts 211°
2026-04-25 20:54 31.86448 -8.37099 38906 ft 451 kts 211°
2026-04-25 20:56 31.72733 -8.46255 38957 ft 457 kts 211°
2026-04-25 20:57 31.50213 -8.61219 38962 ft 472 kts 211°
2026-04-25 20:57 31.27602 -8.76156 38916 ft 460 kts 211°
2026-04-25 20:58 31.05434 -8.90724 38952 ft 459 kts 211°
2026-04-25 20:58 30.82699 -9.05583 38917 ft 474 kts 211°
2026-04-25 20:59 30.60060 -9.20294 38836 ft 458 kts 211°
2026-04-25 20:59 30.37979 -9.34575 38924 ft 463 kts 211°
2026-04-25 21:00 30.26047 -9.41060 38880 ft 475 kts 202°
2026-04-25 21:00 30.17803 -9.44574 38883 ft 477 kts 203°
2026-04-25 21:00 29.89270 -9.56964 38873 ft 460 kts 203°
2026-04-25 21:01 29.77508 -9.62105 38945 ft 459 kts 204°
2026-04-25 21:01 29.53155 -9.72692 38981 ft 475 kts 204°
2026-04-25 21:02 29.28535 -9.83329 38903 ft 460 kts 204°
2026-04-25 21:02 29.04731 -9.93571 38955 ft 461 kts 204°
2026-04-25 21:03 28.80430 -10.03928 38972 ft 471 kts 204°
2026-04-25 21:03 28.56330 -10.14137 38915 ft 453 kts 205°
2026-04-25 21:04 28.32599 -10.24154 38972 ft 463 kts 205°
2026-04-25 21:04 28.08212 -10.34385 38963 ft 467 kts 205°
2026-04-25 21:05 27.84242 -10.44397 38919 ft 451 kts 206°
2026-04-25 21:05 27.60598 -10.54299 38994 ft 460 kts 207°
2026-04-25 21:06 27.36479 -10.64695 38956 ft 462 kts 207°
2026-04-25 21:06 27.24630 -10.69766 38876 ft 451 kts 208°
2026-04-25 21:06 27.12943 -10.74765 38918 ft 446 kts 208°
2026-04-25 21:07 26.89496 -10.84765 39010 ft 459 kts 208°
2026-04-25 21:07 26.65528 -10.94920 38948 ft 453 kts 209°
2026-04-25 21:08 26.42384 -11.04695 38958 ft 441 kts 210°
2026-04-25 21:08 26.19022 -11.14527 38989 ft 457 kts 210°
2026-04-25 21:09 25.83930 -11.29193 38895 ft 439 kts 210°
2026-04-25 21:09 25.60865 -11.38799 38991 ft 452 kts 210°
2026-04-25 21:10 25.37098 -11.48637 38919 ft 452 kts 210°
2026-04-25 21:10 25.13937 -11.57984 38926 ft 440 kts 208°
2026-04-25 21:11 24.90509 -11.66773 38976 ft 456 kts 208°
2026-04-25 21:11 24.66572 -11.75753 38899 ft 446 kts 208°
2026-04-25 21:12 24.49222 -11.82251 38917 ft 438 kts 209°
2026-04-25 21:12 24.44355 -11.84078 38932 ft 445 kts 208°
2026-04-25 21:13 24.37494 -11.86644 38933 ft 450 kts 208°
2026-04-25 21:13 24.31542 -11.88859 38927 ft 452 kts 208°
2026-04-25 21:14 24.25592 -11.91071 38925 ft 451 kts 208°
2026-04-25 21:14 24.19667 -11.93273 38919 ft 448 kts 208°
2026-04-25 21:15 24.13778 -11.95461 38917 ft 445 kts 208°
2026-04-25 21:15 24.07929 -11.97633 38926 ft 443 kts 208°
2026-04-25 21:16 24.02108 -11.99794 38923 ft 441 kts 208°
2026-04-25 21:16 23.96312 -12.01943 38925 ft 439 kts 209°
2026-04-25 21:17 23.90537 -12.04083 38927 ft 438 kts 208°
2026-04-25 21:17 23.83135 -12.06823 38929 ft 438 kts 209°
2026-04-25 21:18 23.71584 -12.11092 38926 ft 439 kts 208°
2026-04-25 21:18 23.60022 -12.15354 38925 ft 439 kts 208°
2026-04-25 21:19 23.48435 -12.19620 38928 ft 439 kts 208°
2026-04-25 21:19 23.36846 -12.23882 38927 ft 440 kts 208°
2026-04-25 21:20 23.27203 -12.27427 38924 ft 440 kts 208°
2026-04-25 21:20 23.13601 -12.32418 38929 ft 441 kts 208°
2026-04-25 21:21 23.01962 -12.36681 38925 ft 442 kts 208°
2026-04-25 21:21 22.90383 -12.40914 38923 ft 442 kts 208°
2026-04-25 21:22 22.78732 -12.45166 38921 ft 442 kts 208°
2026-04-25 21:22 22.66770 -12.48700 38927 ft 447 kts 204°
2026-04-25 21:23 22.54659 -12.51969 38919 ft 448 kts 204°
2026-04-25 21:23 22.42576 -12.55245 38918 ft 448 kts 204°
2026-04-25 21:24 22.30479 -12.58520 38912 ft 448 kts 204°
2026-04-25 21:24 22.18400 -12.61783 38914 ft 447 kts 204°
2026-04-25 21:25 22.06328 -12.65039 38906 ft 447 kts 203°
2026-04-25 21:25 21.94246 -12.68292 38914 ft 448 kts 203°
2026-04-25 21:26 21.82126 -12.71549 38914 ft 449 kts 203°
2026-04-25 21:26 21.69987 -12.74806 38916 ft 450 kts 203°
2026-04-25 21:27 21.57824 -12.78062 38905 ft 451 kts 203°
2026-04-25 21:27 21.45719 -12.81299 38903 ft 452 kts 203°
2026-04-25 21:28 21.33434 -12.84578 38894 ft 452 kts 203°
2026-04-25 21:28 21.21294 -12.87812 38895 ft 452 kts 203°
2026-04-25 21:29 21.09076 -12.91062 38895 ft 453 kts 202°
2026-04-25 21:29 20.96833 -12.94313 38887 ft 454 kts 202°
2026-04-25 21:30 20.84572 -12.97563 38879 ft 454 kts 202°
2026-04-25 21:30 20.74278 -13.00288 38901 ft 456 kts 202°
2026-04-25 21:31 20.59920 -13.04082 38889 ft 458 kts 202°
2026-04-25 21:31 20.48077 -13.08455 38885 ft 442 kts 216°
2026-04-25 21:32 20.38189 -13.15946 38882 ft 436 kts 223°
2026-04-25 21:32 20.28416 -13.23651 38845 ft 437 kts 223°
2026-04-25 21:33 20.18611 -13.31335 38857 ft 438 kts 223°
2026-04-25 21:33 20.08764 -13.39039 38860 ft 440 kts 223°
2026-04-25 21:34 19.98911 -13.46737 38849 ft 441 kts 223°
2026-04-25 21:34 19.89002 -13.54466 38847 ft 441 kts 222°
2026-04-25 21:35 19.79105 -13.62171 38848 ft 441 kts 222°
2026-04-25 21:35 19.69189 -13.69882 38842 ft 442 kts 222°
2026-04-25 21:36 19.59263 -13.77587 38841 ft 442 kts 222°
2026-04-25 21:36 19.49342 -13.85276 38839 ft 442 kts 222°
2026-04-25 21:37 19.42776 -13.90359 38840 ft 441 kts 222°
2026-04-25 21:37 19.29502 -14.00619 38839 ft 442 kts 222°
2026-04-25 21:38 19.19642 -14.08225 38834 ft 442 kts 222°
2026-04-25 21:38 19.09703 -14.15881 38833 ft 442 kts 221°
2026-04-25 21:39 18.99766 -14.23525 38835 ft 442 kts 221°
2026-04-25 21:39 18.89820 -14.31163 38833 ft 442 kts 221°
2026-04-25 21:40 18.79871 -14.38792 38827 ft 442 kts 221°
2026-04-25 21:40 18.69915 -14.46416 38826 ft 442 kts 221°
2026-04-25 21:41 18.59940 -14.54043 38825 ft 443 kts 221°
2026-04-25 21:41 18.49968 -14.61656 38827 ft 443 kts 221°
2026-04-25 21:42 18.39978 -14.69271 38830 ft 443 kts 221°
2026-04-25 21:42 18.29981 -14.76881 38820 ft 444 kts 221°
2026-04-25 21:43 18.19963 -14.84496 38833 ft 444 kts 220°
2026-04-25 21:43 18.09934 -14.92108 38832 ft 445 kts 220°
2026-04-25 21:44 17.99911 -14.99705 38833 ft 445 kts 220°
2026-04-25 21:45 17.86530 -15.09832 38831 ft 445 kts 220°
2026-04-25 21:45 17.76465 -15.17430 38839 ft 446 kts 220°
2026-04-25 21:46 17.66377 -15.25034 38838 ft 446 kts 220°
2026-04-25 21:46 17.56283 -15.32640 38846 ft 447 kts 220°
2026-04-25 21:47 17.46186 -15.40247 38850 ft 447 kts 220°
2026-04-25 21:47 17.36082 -15.47847 38849 ft 447 kts 220°
2026-04-25 21:48 17.25959 -15.55452 38859 ft 448 kts 220°
2026-04-25 21:48 17.15831 -15.63052 38860 ft 448 kts 220°
2026-04-25 21:49 17.05683 -15.70657 38868 ft 449 kts 220°
2026-04-25 21:49 16.95529 -15.78266 38863 ft 449 kts 220°
2026-04-25 21:50 16.85365 -15.85873 38869 ft 450 kts 220°
2026-04-25 21:50 16.79134 -15.90532 38867 ft 450 kts 220°
2026-04-25 21:51 16.74034 -15.94341 38870 ft 451 kts 220°
2026-04-25 21:51 16.68970 -15.98121 38869 ft 451 kts 220°
2026-04-25 21:52 16.63862 -16.01933 38865 ft 451 kts 220°
2026-04-25 21:52 16.58754 -16.05742 38864 ft 451 kts 220°
2026-04-25 21:53 16.53647 -16.09548 38864 ft 452 kts 220°
2026-04-25 21:53 16.48530 -16.13355 38866 ft 452 kts 220°
2026-04-25 21:54 16.43412 -16.17155 38878 ft 452 kts 220°
2026-04-25 21:54 16.38268 -16.20974 38877 ft 452 kts 220°
2026-04-25 21:55 16.33166 -16.24761 38879 ft 452 kts 220°
2026-04-25 21:55 16.28042 -16.28562 38880 ft 452 kts 220°
2026-04-25 21:56 16.22917 -16.32360 38879 ft 453 kts 219°
2026-04-25 21:56 16.17786 -16.36162 38882 ft 453 kts 219°
2026-04-25 21:57 16.12653 -16.39963 38881 ft 453 kts 219°
2026-04-25 21:57 16.07514 -16.43765 38882 ft 453 kts 219°
2026-04-25 21:58 16.02142 -16.47214 38886 ft 459 kts 208°
2026-04-25 21:58 15.96208 -16.49730 38883 ft 461 kts 206°
2026-04-25 21:59 15.90244 -16.52210 38881 ft 462 kts 207°
2026-04-25 21:59 15.84302 -16.54774 38883 ft 462 kts 207°
2026-04-25 22:00 15.75404 -16.58692 38583 ft 468 kts 207°
2026-04-25 22:00 15.72392 -16.60023 37800 ft 471 kts 207°
2026-04-25 22:00 15.69424 -16.61330 37068 ft 468 kts 207°
2026-04-25 22:01 15.66391 -16.62664 36309 ft 467 kts 207°
2026-04-25 22:01 15.63407 -16.63975 35545 ft 467 kts 207°
2026-04-25 22:01 15.60405 -16.65295 34655 ft 469 kts 207°
2026-04-25 22:01 15.58409 -16.66173 34060 ft 472 kts 207°
2026-04-25 22:02 15.54391 -16.67939 32963 ft 473 kts 207°
2026-04-25 22:02 15.51370 -16.69263 32305 ft 469 kts 207°
2026-04-25 22:02 15.48375 -16.70576 31669 ft 466 kts 207°
2026-04-25 22:02 15.45404 -16.71878 31073 ft 463 kts 207°
2026-04-25 22:03 15.42452 -16.73172 30489 ft 460 kts 207°
2026-04-25 22:03 15.39513 -16.74461 29883 ft 457 kts 207°
2026-04-25 22:03 15.36589 -16.75743 29170 ft 454 kts 207°
2026-04-25 22:03 15.33685 -16.77016 28502 ft 451 kts 207°
2026-04-25 22:04 15.30807 -16.78278 27869 ft 447 kts 207°
2026-04-25 22:04 15.27945 -16.79494 27241 ft 443 kts 203°
2026-04-25 22:04 15.24961 -16.80323 26635 ft 445 kts 193°
2026-04-25 22:04 15.21881 -16.80681 26009 ft 445 kts 187°
2026-04-25 22:05 15.18793 -16.80847 25411 ft 443 kts 185°
2026-04-25 22:05 15.15718 -16.80960 24820 ft 441 kts 184°
2026-04-25 22:05 15.12665 -16.81063 24255 ft 438 kts 184°
2026-04-25 22:05 15.09638 -16.81166 23715 ft 434 kts 184°
2026-04-25 22:06 15.06627 -16.81270 23153 ft 431 kts 184°
2026-04-25 22:06 15.03651 -16.81375 22644 ft 425 kts 184°
2026-04-25 22:06 15.00724 -16.81475 22217 ft 418 kts 184°
2026-04-25 22:06 14.97848 -16.81571 21854 ft 409 kts 184°
2026-04-25 22:07 14.95009 -16.81662 21411 ft 408 kts 184°
2026-04-25 22:07 14.93123 -16.81721 21101 ft 409 kts 184°
2026-04-25 22:07 14.89308 -16.81839 20552 ft 410 kts 184°
2026-04-25 22:07 14.86463 -16.81924 20232 ft 408 kts 184°
2026-04-25 22:08 14.83684 -16.82013 19965 ft 399 kts 186°
2026-04-25 22:08 14.80996 -16.82560 19438 ft 394 kts 203°
2026-04-25 22:08 14.78496 -16.83601 18881 ft 385 kts 200°
2026-04-25 22:08 14.75810 -16.83910 18175 ft 401 kts 175°
2026-04-25 22:09 14.73259 -16.82987 17809 ft 408 kts 150°
2026-04-25 22:09 14.71071 -16.81073 17476 ft 398 kts 139°
2026-04-25 22:09 14.68923 -16.79298 16849 ft 397 kts 150°
2026-04-25 22:09 14.66478 -16.78011 16563 ft 391 kts 162°
2026-04-25 22:10 14.63889 -16.77267 16379 ft 382 kts 173°
2026-04-25 22:10 14.61268 -16.77065 16147 ft 375 kts 184°
2026-04-25 22:10 14.58697 -16.77348 15834 ft 365 kts 191°
2026-04-25 22:10 14.56255 -16.77797 14962 ft 353 kts 193°
2026-04-25 22:11 14.53847 -16.78308 14107 ft 357 kts 194°
2026-04-25 22:11 14.51490 -16.79063 13619 ft 357 kts 204°
2026-04-25 22:11 14.49341 -16.80260 13011 ft 341 kts 215°
2026-04-25 22:11 14.47551 -16.81798 11943 ft 335 kts 226°
2026-04-25 22:12 14.46099 -16.83688 10708 ft 338 kts 236°
2026-04-25 22:12 14.45004 -16.85805 9750 ft 335 kts 245°
2026-04-25 22:12 14.44232 -16.88048 8811 ft 329 kts 253°
2026-04-25 22:12 14.43829 -16.89529 8416 ft 318 kts 250°
2026-04-25 22:13 14.42355 -16.92107 7249 ft 314 kts 225°
2026-04-25 22:13 14.40658 -16.93319 7187 ft 286 kts 207°
2026-04-25 22:13 14.38909 -16.94144 6724 ft 288 kts 204°
2026-04-25 22:13 14.37062 -16.94911 6629 ft 286 kts 202°
2026-04-25 22:14 14.35217 -16.95665 6540 ft 285 kts 202°
2026-04-25 22:14 14.33375 -16.96416 6409 ft 286 kts 203°
2026-04-25 22:14 14.31517 -16.97171 6291 ft 286 kts 203°
2026-04-25 22:14 14.29753 -16.98024 6299 ft 277 kts 209°
2026-04-25 22:15 14.28078 -16.98955 6265 ft 268 kts 214°
2026-04-25 22:15 14.26678 -17.00231 5784 ft 275 kts 237°
2026-04-25 22:15 14.25906 -17.01985 5463 ft 270 kts 262°
2026-04-25 22:16 14.26659 -17.05474 5119 ft 250 kts 311°
2026-04-25 22:16 14.27995 -17.06548 4746 ft 248 kts 340°
2026-04-25 22:16 14.29695 -17.06763 4387 ft 247 kts
2026-04-25 22:16 14.31373 -17.06488 4151 ft 243 kts 10°
2026-04-25 22:17 14.33053 -17.06198 3804 ft 244 kts
2026-04-25 22:17 14.34552 -17.05614 3829 ft 229 kts 37°
2026-04-25 22:17 14.35749 -17.04451 3879 ft 245 kts 43°
2026-04-25 22:17 14.37208 -17.03616 3570 ft 249 kts
2026-04-25 22:18 14.38864 -17.03918 3271 ft 248 kts 332°
2026-04-25 22:18 14.40195 -17.05022 3069 ft 242 kts 319°
2026-04-25 22:18 14.41417 -17.06199 2996 ft 239 kts 325°
2026-04-25 22:18 14.42920 -17.06923 3252 ft 243 kts 350°
2026-04-25 22:19 14.44615 -17.06977 3500 ft 242 kts
2026-04-25 22:19 14.46289 -17.06903 3922 ft 245 kts 358°
2026-04-25 22:19 14.48048 -17.07064 3905 ft 261 kts 356°
2026-04-25 22:19 14.49812 -17.07097 3740 ft 244 kts
2026-04-25 22:20 14.51489 -17.07079 3196 ft 239 kts 360°
2026-04-25 22:20 14.53113 -17.07115 2676 ft 226 kts 358°
2026-04-25 22:20 14.54615 -17.07171 2296 ft 201 kts 359°
2026-04-25 22:20 14.55972 -17.07213 2366 ft 191 kts 359°
2026-04-25 22:21 14.57274 -17.07210 2346 ft 182 kts
2026-04-25 22:21 14.58476 -17.07188 1903 ft 164 kts
2026-04-25 22:21 14.59544 -17.07210 1540 ft 142 kts 359°
2026-04-25 22:21 14.60481 -17.07239 1297 ft 130 kts 359°
2026-04-25 22:22 14.61365 -17.07238 1038 ft 127 kts 360°
2026-04-25 22:22 14.62243 -17.07242 928 ft 127 kts 360°
2026-04-25 22:22 14.63142 -17.07240 831 ft 131 kts 358°
2026-04-25 22:22 14.64045 -17.07263 592 ft 132 kts
2026-04-25 22:23 14.64931 -17.07260 430 ft 124 kts 359°
2026-04-25 22:23 14.65800 -17.07268 293 ft 124 kts 359°
2026-04-25 22:23 14.66562 -17.07277 271 ft 94 kts 359°
2026-04-25 22:23 14.67063 -17.07281 272 ft 50 kts 359°
2026-04-25 22:24 14.67324 -17.07284 269 ft 36 kts 359°
2026-04-25 22:24 14.67568 -17.07283 267 ft 29 kts
2026-04-25 22:24 14.67737 -17.07228 267 ft 25 kts 27°
2026-04-25 22:24 14.67761 -17.07214 267 ft 0 kts 29°
2026-04-25 22:25 14.67782 -17.07202 267 ft 8 kts 29°
2026-04-25 22:25 14.67842 -17.07151 267 ft 13 kts 72°
2026-04-25 22:26 14.67810 -17.07103 269 ft 7 kts 163°
2026-04-25 22:26 14.67735 -17.07097 270 ft 15 kts 179°
2026-04-25 22:26 14.67595 -17.07097 270 ft 25 kts 179°
2026-04-25 22:26 14.67411 -17.07095 270 ft 22 kts 179°
2026-04-25 22:27 14.67243 -17.07092 271 ft 25 kts 179°
2026-04-25 22:27 14.67110 -17.07089 272 ft 14 kts 165°
2026-04-25 22:27 14.67078 -17.06988 276 ft 14 kts 90°
2026-04-25 22:27 14.67079 -17.06923 276 ft 8 kts 89°
2026-04-25 22:28 14.67079 -17.06875 276 ft 7 kts 89°
2026-04-25 22:28 14.67079 -17.06856 276 ft 0 kts 89°
2026-04-25 22:28 14.67079 -17.06855 276 ft 0 kts 89°